Regional Weather Roundup
Issued by NWS

Home | Current Version | Previous Version | Graphics & Text | Print | Product List | Glossary On
Versions: 1 2 3 4 5 6 7 8 9 10 11 12 13 14 15 16 17 18 19 20 21 22 23 24 25 26 27 28 29 30 31 32 33 34 35 36 37 38 39 40 41 42 43 44 45 46 47 48 49 50
000
ASUS43 KFSD 292110
RWRSD

WEATHER ROUNDUP FOR SOUTH DAKOTA
NATIONAL WEATHER SERVICE SIOUX FALLS SD
400 PM CDT FRI MAY 29 2015

NOTE: "FAIR" INDICATES FEW OR NO CLOUDS BELOW 12,000 FEET WITH NO
SIGNIFICANT WEATHER AND/OR OBSTRUCTIONS TO VISIBILITY.


SDZ001>005-009-010-012>017-292200-
NORTHWEST AND NORTH CENTRAL SOUTH DAKOTA

CITY           SKY/WX    TMP DP  RH WIND       PRES   REMARKS
BUFFALO          N/A     54  38  54 NE10      30.22S
FAITH            N/A     54  37  52 N18       30.24F
MOBRIDGE       CLOUDY    56  39  53 N20G26    30.20S
$$

SDZ012>016-024>037-041>051-057-063-072>074-292200-
SOUTHWEST AND SOUTH CENTRAL SOUTH DAKOTA

CITY           SKY/WX    TMP DP  RH WIND       PRES   REMARKS
RAPID CTY ARPT PTSUNNY   56  42  59 N23G30    30.26S
PIERRE         CLOUDY    52  44  74 N18G24    30.20R
CUSTER         FOG       47  45  93 S9        30.25R VSB<1/4
ELLSWORTH AFB  PTSUNNY   55  41  60 N20G28    30.26S
PHILIP         CLOUDY    51  45  79 N13       30.25R
PINE RIDGE     LGT RAIN  47  43  86 N10       30.26S
SPEARFISH      PTSUNNY   50  39  66 NW6       30.30S
WINNER         LGT RAIN  52  46  80 N23       30.17R
$$

SDZ004>011-016>023-039-040-292200-
NORTHEAST SOUTH DAKOTA

CITY           SKY/WX    TMP DP  RH WIND       PRES   REMARKS
ABERDEEN       CLOUDY    53  43  68 N18G28    30.17S
WATERTOWN      CLOUDY    49  44  83 N22G28    30.07S
BROOKINGS      CLOUDY    48  45  87 N22G29    30.05R
SISSETON         N/A     49  43  80 N24G35    30.12R
$$

SDZ017-020-022-023-036>040-048>070-292200-
SOUTHEAST SOUTH DAKOTA

CITY           SKY/WX    TMP DP  RH WIND       PRES   REMARKS
SIOUX FALLS    LGT RAIN  55  51  86 N18G29    30.00R
HURON          CLOUDY    52  45  77 N25G33    30.11R
CHAMBERLAIN    CLOUDY    51  46  84 N17G26    30.15R
MITCHELL       CLOUDY    53  49  86 N25       30.09R
YANKTON        CLOUDY    57  54  88 N20G28    29.99R
$$

ABBREVIATIONS USED IN REMARKS
   TC - TEMPERATURE IN CELSIUS
  WCI - WIND CHILL INDEX
   HX - HEAT INDEX
  VSB - VISIBILITY



USA.gov is the U.S. government's official web portal to all federal, state and local government web resources and services.